Location: Arpaise
(41.0333°N, 14.7333°E)
Time: 17:00:04
(UTC+00:00)

Cosmos 2297 - Pass Details

Date: 05 July 2020
Orbit: 835 x 859 km, 71.0° (Epoch: 10 August)

Event Time Altitude Azimuth Distance (km) Brightness Sun altitude
Rises 22:48:49 0° 335° (NNW) 3,440 8.0 -26.2°
Reaches altitude 10° 22:51:17 10° 335° (NNW) 2,498 7.0 -26.2°
Maximum altitude 22:57:02 82° 248° (WSW) 867 3.6 -26.3°
Enters shadow 22:57:26 76° 193° (SSW) 882 3.5 -26.3°
